This demonstration page uses our WeatherBlox Daily Observations layout. Learn more.

39.92423, -83.80882

Hourly Observations for July 7, 2018

Temp ( °F °C ) Dew Point ( °F °C ) Humidity (%) Winds ( mph kmh ) Pressure ( in mb ) Visibility ( mi km ) Precip ( " mm )
12:56 am 00:56 Clear 57 13.9 50 10 78 78 NE 8 13 30.31 1026 10 16.0934 0 0
1:56 am 01:56 Clear 56 13.3 51 10.6 84 84 NE 8 13 30.3 1026 10 16.0934 0 0
2:56 am 02:56 Clear 58 14.4 53 11.7 84 84 NE 9 15 30.3 1026 10 16.0934 0 0
3:56 am 03:56 Clear 58 14.4 55 12.8 90 90 NE 10 17 30.3 1026 10 16.0934 0 0
4:56 am 04:56 Clear 57 13.9 55 12.8 93 93 NE 7 11 30.3 1026 10 16.0934 0 0
5:56 am 05:56 Clear 56 13.3 54 12.2 93 93 ENE 7 11 30.31 1026 10 16.0934 0 0
6:56 am 06:56 Sunny 57 13.9 55 12.8 93 93 NE 8 13 30.32 1027 10 16.0934 0 0
7:56 am 07:56 Sunny 62 16.7 58 14.4 86 86 ENE 8 13 30.32 1027 10 16.0934 0 0
8:56 am 08:56 Sunny 66 18.9 56 13.3 70 70 ENE 12 19 30.34 1027 10 16.0934 0 0
9:56 am 09:56 Sunny 68 20 55 12.8 63 63 ENE 17 28 30.34 1027 10 16.0934 0 0
10:56 am 10:56 Sunny 70 21.1 55 12.8 59 59 E 15 24 30.35 1028 10 16.0934 0 0
11:56 am 11:56 Sunny 72 22.2 54 12.2 53 53 ENE 13 20 30.35 1028 10 16.0934 0 0
12:56 pm 12:56 Sunny 74 23.3 54 12.2 50 50 E 14 22 30.33 1027 10 16.0934 0 0
1:56 pm 13:56 Sunny 76 24.4 51 10.6 42 42 E 12 19 30.32 1027 10 16.0934 0 0
2:56 pm 14:56 Sunny 77 25 52 11.1 42 42 NE 13 20 30.31 1026 10 16.0934 0 0
3:56 pm 15:56 Sunny 78 25.6 53 11.7 42 42 NE 14 22 30.29 1026 10 16.0934 0 0
4:56 pm 16:56 Sunny 78 25.6 52 11.1 40 40 ENE 12 19 30.28 1025 10 16.0934 0 0
5:56 pm 17:56 Sunny 78 25.6 52 11.1 40 40 NE 10 17 30.27 1025 10 16.0934 0 0
6:56 pm 18:56 Sunny 77 25 52 11.1 42 42 ENE 10 17 30.26 1025 10 16.0934 0 0
7:56 pm 19:56 Sunny 74 23.3 53 11.7 48 48 ENE 7 11 30.26 1025 10 16.0934 0 0
8:56 pm 20:56 Sunny 70 21.1 55 12.8 59 59 ENE 5 7 30.24 1024 10 16.0934 0 0
9:56 pm 21:56 Clear 63 17.2 54 12.2 73 73 SSE 5 7 30.26 1025 10 16.0934 0 0
10:56 pm 22:56 Clear 60 15.6 54 12.2 80 80 ENE 3 6 30.28 1026 10 16.0934 0 0
11:56 pm 23:56 Clear 60 15.6 53 11.7 78 78 ENE 5 7 30.29 1026 10 16.0934 0 0

Powered by AerisWeather